SCP
0 0 0 0 0 0 0 0 1 1 2 2 2 3 3 4 7 9 10 10 10 9 7 6 6 6 6 6 5 4 4 3 3 3 2 2 1 1 1 1 1 1 1 1
0 0 0 0 0 0 0 0 1 2 2 2 3 3 3 4 7 9 10 10 9 8 7 7 7 6 5 5 4 3 3 3 3 3 2 2 1 1 1 1 1 1 1 1
0 0 0 0 0 1 1 1 2 3 3 3 4 4 4 5 7 9 10 9 9 8 8 8 7 6 4 3 3 3 3 3 3 3 2 1 1 1 1 1 1 1 1 1
0 0 0 0 1 1 2 2 3 4 4 4 5 5 5 6 7 9 10 10 10 9 8 7 6 4 3 3 3 3 3 2 2 2 2 1 1 1 1 1 1 1 1 1
0 0 0 1 1 1 2 3 4 5 5 5 7 7 7 8 8 9 10 10 9 8 7 5 4 3 2 3 3 3 3 2 2 2 2 2 1 1 1 1 1 1 2 2
0 0 1 1 2 2 3 4 5 5 5 5 7 8 9 9 9 9 9 9 8 7 6 5 4 3 3 3 3 3 3 2 2 2 2 2 2 2 2 2 2 3 3 3
0 0 1 2 3 3 3 3 4 4 4 4 6 9 12 12 11 9 8 7 6 5 6 6 5 4 4 4 4 4 4 3 3 3 3 3 3 3 3 4 4 4 4 3
1 1 1 2 3 3 2 3 4 4 4 5 7 13 17 16 13 9 7 6 5 4 4 5 5 5 5 5 6 6 6 5 5 4 3 3 3 4 5 5 6 5 4 4
1 1 1 2 2 2 3 3 3 4 5 7 11 17 19 17 13 10 7 6 4 3 3 3 4 4 4 4 5 7 7 7 7 6 5 4 5 6 7 7 7 6 5 4
1 2 2 2 1 2 3 3 3 4 6 9 14 17 18 15 12 9 6 5 3 2 1 1 1 2 2 2 3 4 6 7 8 8 6 4 4 5 6 7 7 6 5 4
1 1 2 1 1 1 2 3 3 4 6 9 13 14 14 11 8 6 4 3 2 1 1 1 0 0 0 0 1 2 3 5 7 8 6 3 2 2 3 4 4 4 3 3
1 1 1 1 1 1 2 3 5 5 6 7 9 9 8 6 4 3 2 1 1 1 1 0 0 0 0 0 0 1 2 3 5 6 6 3 1 0 0 1 1 1 1 1
1 1 1 1 1 2 3 4 5 5 5 5 5 5 4 3 2 1 1 1 0 0 0 0 0 0 0 0 0 1 2 3 4 5 5 3 1 0 0 0 0 0 0 0
1 1 1 2 2 3 4 4 4 3 3 2 2 1 1 1 1 0 0 0 0 0 0 0 0 0 0 0 0 0 1 2 2 3 3 2 1 1 0 0 0 0 0 0
1 1 2 2 2 3 3 2 2 1 1 1 1 0 0 0 0 0 0 0 0 0 0 0 0 0 0 0 0 0 0 1 1 1 1 1 1 0 0 0 0 0 0 0
1 1 1 2 1 1 1 1 1 1 0 0 0 0 0 0 0 0 0 0 0 0 0 0 0 0 0 0 0 0 0 0 0 1 1 0 0 0 0 0 0 0 0 0
1 1 1 1 1 0 1 1 1 0 0 0 0 0 0 0 0 0 0 0 0 0 0 0 0 0 0 0 0 0 0 0 0 0 0 0 0 0 0 0 0 0 0 0
0 0 0 0 0 0 0 1 0 0 0 0 0 0 0 0 0 0 0 0 0 0 0 0 0 0 0 0 0 0 0 0 0 0 0 0 0 0 0 0 0 0 0 0
1 0 0 0 0 0 0 0 0 0 0 0 0 0 0 0 0 0 0 0 0 0 0 0 0 0 0 0 0 0 0 0 0 0 0 0 0 0 0 0 0 0 0 0
1 1 0 0 0 0 0 0 0 0 0 0 0 0 0 0 0 0 0 0 0 0 0 0 0 0 0 0 0 0 0 0 0 0 0 0 0 0 0 0 0 0 0 0
1 0 0 0 0 0 0 0 0 0 0 0 0 0 0 0 0 0 0 0 0 0 0 0 0 0 0 0 0 0 0 0 0 0 0 0 0 0 0 0 0 0 0 0
0 0 0 0 0 0 0 0 0 0 0 0 0 0 0 0 0 0 0 0 0 0 0 0 0 0 0 0 0 0 0 0 0 0 0 0 0 0 0 0 0 0 0 0
0 0 0 0 0 0 0 0 0 0 0 0 0 0 0 0 0 0 0 0 0 0 0 0 0 0 0 0 0 0 0 0 0 0 0 0 0 0 0 0 0 0 0 0
0 0 0 0 0 0 0 0 0 0 0 0 0 0 0 0 0 0 0 0 0 0 0 0 0 0 0 0 0 0 0 0 0 0 0 0 0 0 0 0 0 0 0 0
0 0 0 0 0 0 0 0 0 0 0 0 0 0 0 0 0 0 0 0 0 0 0 0 0 0 0 0 0 0 0 0 0 0 0 0 0 0 0 0 0 0 0 0
0 0 0 0 0 0 0 0 0 0 0 0 0 0 0 0 0 0 0 0 0 0 0 0 0 0 0 0 0 0 0 0 0 0 0 0 0 0 0 0 0 0 0 0
0 0 0 0 0 0 0 0 0 0 0 0 0 0 0 0 0 0 0 0 0 0 0 0 0 0 0 0 0 0 0 0 0 0 0 0 0 0 0 0 0 0 0 0
Wind_Speed
4 3 2 2 3 4 5 8 9 9 9 9 8 8 7 7 7 8 8 9 9 8 6 6 6 5 5 5 5 5 5 4 4 3 3 3 3 2 2 2 3 2 3 4
2 3 1 2 3 3 4 5 5 6 4 4 5 6 7 9 9 9 8 8 8 8 7 6 6 6 6 5 4 4 5 4 3 3 3 3 2 2 2 2 1 1 2 2
2 4 3 3 3 2 2 3 8 8 8 8 8 7 8 10 8 9 9 8 7 6 6 5 5 5 6 5 4 4 4 3 3 3 3 2 2 1 1 1 1 1 1 1
1 3 3 7 4 2 4 2 3 6 9 11 10 7 5 7 10 8 8 8 7 5 5 5 4 4 5 5 5 4 3 3 2 3 2 2 2 2 2 2 2 1 1 1
3 1 3 5 4 2 3 1 2 9 11 12 12 10 5 2 6 8 7 8 6 4 5 5 5 5 5 5 4 4 3 2 2 3 2 2 2 2 2 2 2 2 2 2
3 3 3 5 6 5 4 1 1 7 12 13 10 7 4 4 7 9 8 7 6 5 6 6 5 5 6 5 4 4 2 2 2 2 3 2 2 2 2 2 2 2 2 2
3 2 4 4 7 3 4 4 2 4 8 8 6 7 9 10 9 9 9 8 7 7 7 5 5 6 6 5 3 2 2 2 2 2 3 3 3 3 3 3 4 3 3 3
4 3 5 5 3 2 3 2 3 5 6 9 12 13 12 12 11 10 10 10 9 8 8 6 6 7 7 5 3 3 5 5 4 4 3 3 4 4 4 4 4 3 3 4
4 4 3 1 2 1 3 5 4 5 6 12 15 14 13 12 11 9 9 9 8 9 9 7 7 7 7 4 4 5 6 5 5 6 5 5 5 5 5 4 4 3 3 3
2 1 1 3 4 4 3 5 5 8 10 12 15 15 13 11 10 9 8 9 8 9 9 7 7 7 6 5 5 6 7 6 6 7 6 7 6 5 5 4 4 3 3 3
1 0 4 5 4 4 4 6 8 9 11 12 15 15 13 12 10 9 8 8 8 8 8 7 6 6 6 5 5 7 7 6 6 6 6 7 7 7 6 6 4 4 3 2
3 3 3 1 1 4 5 6 9 13 12 10 12 14 13 11 10 10 9 8 8 8 8 6 6 6 6 5 5 6 6 5 4 4 5 5 7 8 13 10 12 11 8 5
3 3 5 5 4 4 6 9 11 12 13 12 10 12 13 12 9 10 10 9 8 8 7 6 6 6 5 4 5 6 6 5 4 4 4 4 4 6 6 7 10 12 11 10
5 6 7 6 6 7 10 12 13 13 12 12 11 12 12 12 11 11 9 8 8 8 7 6 6 5 4 4 6 6 5 6 5 4 4 4 4 4 5 5 5 5 7 9
4 5 8 9 9 9 9 12 14 13 14 12 11 12 12 12 11 10 8 8 8 8 7 6 6 5 4 5 6 6 5 4 4 4 4 5 5 5 5 5 5 4 4 6
6 8 10 11 11 10 10 12 13 13 13 13 12 11 11 12 11 10 8 8 8 8 6 6 5 4 4 5 5 5 5 8 7 5 5 5 5 5 5 5 4 4 4 4
9 8 10 11 10 10 10 10 11 11 12 12 12 12 12 12 11 10 8 7 7 7 6 6 4 3 4 5 5 4 4 6 9 6 5 5 4 4 4 4 4 4 4 4
6 7 8 11 12 12 11 11 12 12 12 12 13 13 12 11 10 9 7 7 8 8 6 5 4 5 5 5 5 4 5 5 5 5 5 5 5 4 4 5 5 5 3 5
9 9 10 11 11 12 12 12 12 12 11 11 12 12 11 10 9 8 8 8 8 7 4 5 7 7 6 6 6 4 5 6 6 5 5 6 6 5 5 5 4 4 4 4
9 10 12 12 11 12 12 12 12 12 11 11 12 12 11 9 9 8 8 7 4 2 3 5 6 5 5 6 8 5 6 6 6 5 5 5 5 5 4 5 5 5 5 4
10 11 12 13 12 12 12 12 12 12 11 11 11 11 10 8 8 7 7 6 3 3 5 7 5 4 4 6 7 6 6 5 5 5 5 5 5 5 5 5 5 5 4 4
10 11 12 12 12 11 10 10 10 11 10 10 11 10 10 9 8 7 5 3 3 6 5 4 4 6 7 7 5 5 6 6 5 5 5 5 5 4 4 5 4 4 4 4
9 10 11 11 11 11 10 9 10 10 10 10 10 9 8 6 5 6 4 2 3 7 5 4 7 10 10 6 5 6 6 6 5 5 5 4 4 4 4 5 4 4 4 4
9 10 10 10 11 11 10 9 9 8 9 9 8 8 8 6 4 3 3 5 7 7 5 6 11 11 9 5 5 6 5 5 5 5 5 5 5 4 4 4 4 4 4 5
9 9 10 10 9 8 9 10 10 9 9 7 7 7 6 5 5 3 4 5 7 7 5 7 11 10 6 5 5 5 4 4 5 5 5 5 4 4 4 4 4 4 4 4
8 7 7 7 7 6 7 7 7 6 7 7 5 5 5 4 5 5 4 6 7 7 5 5 6 6 5 5 5 5 4 5 5 5 5 4 4 4 4 4 5 4 4 4
8 7 6 7 6 6 6 7 7 6 6 7 6 4 4 4 4 5 6 5 5 5 5 5 5 5 4 5 5 4 4 4 4 4 4 4 4 4 4 5 4 4 3 3
Wind_Direction
214 234 197 219 225 199 171 175 175 202 193 212 194 165 144 127 122 122 124 124 128 131 132 131 134 136 138 142 142 146 147 157 172 175 175 172 179 190 197 198 212 213 212 217
327 320 329 310 276 242 210 173 166 157 197 207 157 129 125 128 131 133 129 124 125 125 125 128 136 138 135 138 142 142 147 157 162 161 158 162 179 191 190 200 207 186 215 223
297 322 31 297 263 229 212 180 156 175 194 152 139 146 149 144 144 145 137 131 133 134 132 134 139 141 138 142 136 135 144 153 159 159 162 175 181 168 183 184 158 162 192 182
102 49 214 245 274 194 153 168 158 149 152 151 148 141 134 146 143 139 135 133 130 137 136 134 132 123 121 118 123 128 127 135 141 138 151 159 158 158 149 131 130 128 108 104
114 140 282 310 327 331 130 341 131 137 138 132 118 93 67 89 131 137 135 128 128 134 134 121 119 120 114 109 111 109 108 117 132 140 141 137 147 156 142 131 114 102 101 95
113 135 220 259 294 305 96 28 308 142 147 145 128 124 155 132 114 114 111 106 103 106 103 102 102 107 105 104 106 113 123 120 116 125 130 134 138 123 109 110 112 104 81 73
139 177 259 275 302 359 118 214 241 155 153 142 135 143 140 119 104 103 102 99 96 90 85 86 92 99 98 95 102 123 114 93 88 101 120 121 108 98 102 97 91 80 74 57
145 174 249 310 3 94 193 188 124 117 122 114 114 114 115 109 104 99 96 90 88 87 76 67 74 87 85 75 71 86 88 81 73 67 77 92 94 89 88 89 86 72 66 53
170 201 241 303 134 153 134 120 104 113 116 122 120 122 119 114 111 106 101 96 92 91 82 66 62 76 81 59 60 79 82 79 76 68 60 67 78 83 85 80 79 71 66 59
97 336 23 37 57 56 83 109 115 123 124 122 121 121 117 114 111 104 99 98 95 90 84 71 61 64 67 61 69 81 83 80 79 77 70 66 65 63 72 70 73 67 61 62
102 162 59 39 56 76 78 93 109 109 114 123 122 120 117 114 111 108 101 93 92 91 87 77 65 61 55 59 78 87 85 83 81 82 86 76 67 56 59 53 58 77 70 66
201 210 145 160 90 98 102 111 118 113 104 106 115 115 114 111 109 107 101 98 93 88 86 79 70 62 53 54 74 91 88 82 82 83 82 89 92 75 57 61 56 56 59 71
165 145 120 115 92 93 106 110 109 110 115 114 109 113 113 110 107 106 103 100 98 95 90 83 75 67 56 57 72 85 92 92 88 87 88 90 94 99 89 62 56 54 52 58
123 111 104 110 112 104 105 107 105 104 104 108 111 109 108 108 107 105 103 102 99 94 87 82 78 69 56 64 73 78 86 89 90 89 90 93 93 91 92 92 76 51 41 49
88 111 125 119 109 105 107 111 109 109 109 109 109 109 109 108 106 105 103 100 95 88 82 78 73 61 54 69 73 74 81 86 86 86 87 91 90 87 85 83 79 68 52 42
105 108 114 115 114 113 114 117 117 117 115 115 112 110 108 106 104 100 97 97 96 90 83 78 71 57 59 73 78 77 83 94 95 91 89 89 90 90 86 83 79 73 64 54
119 122 124 124 120 117 116 116 119 119 118 117 115 111 108 104 100 96 91 88 90 86 78 75 71 61 62 69 80 84 84 90 93 90 88 92 95 97 98 95 89 80 67 57
114 121 127 129 127 120 115 112 112 113 116 117 114 110 109 108 106 103 99 92 83 70 56 55 65 68 64 66 77 82 86 86 87 91 91 91 95 96 95 94 91 86 70 57
102 106 110 113 115 114 113 113 112 111 112 112 110 109 108 107 106 103 96 88 84 75 46 50 65 64 64 69 77 79 84 87 84 81 86 91 89 88 91 89 85 80 74 69
102 104 107 106 106 109 111 111 110 109 110 111 109 105 103 103 103 100 92 83 79 99 87 70 66 63 65 72 77 78 79 82 84 81 80 83 86 85 82 82 83 80 76 76
109 110 112 112 109 108 111 113 113 111 111 110 110 110 109 104 100 98 95 85 53 69 78 74 68 65 70 77 77 78 80 81 81 83 85 85 84 81 78 76 75 76 76 76
110 112 114 115 114 112 109 108 109 109 109 108 108 110 107 102 97 90 83 97 92 82 77 66 68 76 82 80 77 79 80 81 80 81 84 86 88 87 84 82 77 77 76 76
108 111 112 114 116 114 110 109 111 112 111 111 112 112 109 107 108 109 97 73 86 83 79 72 81 82 84 79 77 78 79 81 82 83 82 83 85 87 88 85 83 84 80 75
108 109 111 113 113 112 112 113 112 111 110 110 111 114 114 109 92 85 109 100 92 89 83 83 81 80 82 79 79 79 78 80 81 83 83 81 80 81 83 86 85 81 79 78
109 110 112 113 114 116 116 114 110 107 104 103 104 105 109 115 119 117 104 100 98 91 81 77 78 80 80 81 83 83 81 81 88 89 84 84 83 82 81 81 82 81 77 75
109 112 112 112 115 116 114 113 112 113 112 109 102 99 100 99 102 100 94 92 93 88 79 76 77 76 77 80 84 85 84 86 88 88 92 92 89 87 86 86 87 88 88 85
103 103 103 100 99 104 107 111 116 117 118 118 114 108 105 102 97 96 95 91 89 84 81 80 80 81 83 83 82 84 86 87 88 90 92 91 91 93 95 94 91 92 93 90